sat.trackr.live / text

‹ back to catalog

STARLINK-31484

NORAD 59005 · 2024-036H

PAYLOAD ACTIVE UNKNOWN

§ Identity

Operator
Country
US
Launch date
2024-02-23
Launch site
AFWTR
Launch vehicle
Mass (kg)
RCS (m²)

Purposes: comms

External: N2YO · Heavens-Above · Gunter

§ Orbital elements

Epoch: 2026-05-25T02:10:27.378624Z

Period
94.11 min
Inclination
53.1598°
Eccentricity
0.0001298
Mean motion
15.30189915 rev/d
Perigee alt
474.4 km
Apogee alt
476.1 km
Semi-major
6,853.4 km
B*
2.1378e-5
RAAN
83.0340°
Arg perigee
88.2558°
Mean anomaly
271.8592°
Rev number
12,702

§ Raw data

STARLINK-314841 59005U 24036H   26145.09059466  .00000274  00000+0  21378-4 0  99982 59005  53.1598  83.0340 0001298  88.2558 271.8592 15.30189915127024

JSON: /api/v1/satellites/59005 · /tle

For live sub-satellite position, see the globe view (requires WebGL).

§ Visibility from observer

Set your observer location to see the next 7 days of passes ≥ 10°. The values pass through the URL so the page stays shareable.

No JS? Fill the form by hand. The geolocation button needs JavaScript.